Simultaneous Nadir Overpasses (SNOs) Predictions

Prediction of SNOs between GOES-16 and AQUA Satellite Orbit:

Table of predicted SNOs for the next 14.0 days since TLE Epoch: 5/31/2019
Index Date Time (GOES-16) GOES-16 Lat,Lon AQUA Lat,Lon Distance(km) Time Diff (sec)
1 05/31/2019 18:29:21 -0.01, -75.20 0.46, -73.15 233.36 80
2 06/01/2019 06:50:35 0.01, -75.20 0.68, -78.30 353.07 80
3 06/03/2019 06:38:24 0.01, -75.20 0.01, -75.35 16.49 80
4 06/05/2019 06:23:32 0.00, -75.21 -0.60, -72.39 320.53 80
5 06/05/2019 18:44:57 -0.00, -75.21 -0.49, -77.59 269.56 80
6 06/07/2019 18:35:25 0.01, -75.22 0.12, -74.63 67.59 80
7 06/09/2019 18:23:13 0.01, -75.24 0.74, -71.67 405.42 80
8 06/10/2019 06:44:28 -0.01, -75.24 0.34, -76.83 180.45 80
9 06/12/2019 06:29:37 -0.02, -75.27 -0.34, -73.88 158.41 80
10 06/12/2019 18:51:01 0.02, -75.28 -0.80, -79.06 431.17 80
11 06/14/2019 06:17:25 -0.02, -75.30 -0.96, -70.92 497.82 80




NCC Satellite Simultaneous Nadir Overpasses (SNOs) Prediction Service
